TimeCDT,TemperatureF,Dew PointF,Humidity,Sea Level PressureIn,VisibilityMPH,Wind Direction,Wind SpeedMPH,Gust SpeedMPH,PrecipitationIn,Events,Conditions,WindDirDegrees,DateUTC
12:53 AM,73.9,72.0,93,30.11,10.0,Calm,Calm,-,N/A,,Clear,0,2013-07-16 05:53:00
1:53 AM,73.0,72.0,96,30.10,9.0,Calm,Calm,-,0.00,,Clear,0,2013-07-16 06:53:00
2:53 AM,73.9,73.0,97,30.09,10.0,Calm,Calm,-,N/A,,Clear,0,2013-07-16 07:53:00
3:53 AM,73.9,72.0,93,30.09,10.0,NE,3.5,-,N/A,,Clear,50,2013-07-16 08:53:00
4:53 AM,73.9,73.0,97,30.10,10.0,ENE,6.9,-,N/A,,Partly Cloudy,60,2013-07-16 09:53:00
5:53 AM,73.9,73.0,97,30.11,10.0,ENE,6.9,-,N/A,,Clear,70,2013-07-16 10:53:00
6:53 AM,73.9,72.0,93,30.12,9.0,NE,3.5,-,N/A,,Partly Cloudy,50,2013-07-16 11:53:00
7:53 AM,75.9,73.0,91,30.13,10.0,Calm,Calm,-,N/A,,Clear,0,2013-07-16 12:53:00
8:53 AM,81.0,73.9,79,30.14,10.0,East,6.9,-,N/A,,Clear,100,2013-07-16 13:53:00
9:53 AM,86.0,73.9,67,30.14,10.0,East,8.1,-,N/A,,Clear,100,2013-07-16 14:53:00
10:53 AM,84.9,71.1,63,30.14,10.0,ESE,12.7,-,N/A,,Scattered Clouds,110,2013-07-16 15:53:00
11:53 AM,88.0,71.1,57,30.14,10.0,ESE,13.8,-,N/A,,Clear,110,2013-07-16 16:53:00
12:53 PM,88.0,70.0,55,30.13,10.0,ENE,9.2,-,N/A,,Partly Cloudy,60,2013-07-16 17:53:00
1:53 PM,88.0,73.0,61,30.12,10.0,ENE,5.8,-,0.00,,Mostly Cloudy,60,2013-07-16 18:53:00
2:53 PM,89.1,73.0,59,30.10,10.0,ENE,10.4,16.1,N/A,,Partly Cloudy,70,2013-07-16 19:53:00
3:26 PM,89.6,73.4,59,30.08,10.0,ENE,11.5,19.6,N/A,Thunderstorm,Scattered Clouds,60,2013-07-16 20:26:00
3:41 PM,86.0,71.6,62,30.08,10.0,ENE,11.5,20.7,N/A,,Scattered Clouds,60,2013-07-16 20:41:00
3:53 PM,86.0,71.1,61,30.08,10.0,NE,11.5,-,N/A,,Partly Cloudy,50,2013-07-16 20:53:00
4:53 PM,82.9,75.0,77,30.08,8.0,East,15.0,-,0.00,Rain,Light Rain,100,2013-07-16 21:53:00
5:53 PM,87.1,73.0,63,30.08,10.0,East,12.7,-,0.00,,Mostly Cloudy,100,2013-07-16 22:53:00
6:53 PM,84.9,71.1,63,30.09,10.0,ESE,12.7,-,N/A,,Clear,110,2013-07-16 23:53:00
7:53 PM,84.0,71.1,65,30.11,10.0,East,5.8,-,N/A,,Clear,100,2013-07-17 00:53:00
8:24 PM,82.4,71.6,70,30.11,10.0,East,8.1,-,N/A,Thunderstorm,Partly Cloudy,100,2013-07-17 01:24:00
8:50 PM,75.2,71.6,89,30.13,2.0,East,8.1,23.0,0.23,Rain-Thunderstorm,Heavy Thunderstorms and Rain,100,2013-07-17 01:50:00
8:53 PM,75.0,72.0,90,30.14,2.5,East,6.9,-,0.24,Rain,Rain,90,2013-07-17 01:53:00
9:00 PM,75.2,73.4,94,30.13,7.0,East,4.6,-,0.01,Rain,Rain,100,2013-07-17 02:00:00
9:53 PM,75.9,73.9,94,30.16,10.0,SE,3.5,-,0.02,,Clear,140,2013-07-17 02:53:00
10:53 PM,77.0,75.0,94,30.17,10.0,ENE,3.5,-,N/A,,Clear,70,2013-07-17 03:53:00
11:53 PM,75.9,73.9,94,30.17,10.0,ENE,4.6,-,N/A,,Clear,70,2013-07-17 04:53:00